Pagina principale
METAR-TAF:

METAR-TAF

Aeroporti :

Maseru, Lesotho

latitudine: 29-27S, longitudine: 027-33E, altezza: 1631 m

Osservazione

Il bollettino è stato emesso 14 ore e 39 minuti fa, alle 12:00 UTC
Vento 5 kt da est
Temperature 24°C
Umidità 54%
Pressione 1022 hPa
Visibilità 10 km o più
Nubi sparse ad un'altezza di 3000 ft
Poco nuvoloso ad un'altezza di 3500 ft, Cumulo congesto.

METAR: FXMM 231200Z 09005KT 9999 SCT030 FEW035TCU 24/14 Q1022 NOSIG

Ora: 04:39 (02:39 UTC)


TAF: mancante

Osservazioni e previsioni meteorologiche di più di 4000 aeroporti (messaggi METAR e TAF).

Le stazioni disponibili sono rappresentate dai dischi gialli e rossi sulla carta.

Puntare il mouse per vedere il nome della stazione.

Clicca sopra per visualizzare le osservazioni e previsioni meteorologiche.

Per cambiare la mappa : fare clic sui pulsanti verdi con una croce nera per ingrandire, il pulsante verde con un trattino per diminuire, o sulla freccia verde per le mappe adiacenti.


METAR-TAF: